This demonstration page uses our WeatherBlox Daily Observations layout. Learn more.

Left ArrowRight Arrow

38.20091, -84.87328

Hourly Observations for August 9, 2016

Temp ( °F °C ) Dew Point ( °F °C ) Humidity (%) Winds ( mph kmh ) Pressure ( in mb ) Visibility ( mi km ) Precip ( " mm )
12:53 am 00:53 Clear 74 23.3 69 20.6 85 85 E 5 7 29.95 1014 10 16 0.00 0.00
1:53 am 01:53 Mostly Clear 74 23.3 69 20.6 85 85 ENE 5 7 29.94 1014 10 16 0.00 0.00
2:53 am 02:53 Mostly Cloudy 74 23.3 69 20.6 85 85 E 5 7 29.94 1014 10 16 0.00 0.00
3:53 am 03:53 Partly Cloudy 75 23.9 69 20.6 82 82 NE 3 6 29.94 1014 10 16 0.00 0.00
4:53 am 04:53 Clear 73 22.8 69 20.6 87 87 E 3 6 29.93 1014 9 14 0.00 0.00
5:53 am 05:53 Clear 73 22.8 69 20.6 87 87 ENE 3 6 29.94 1014 8 13 0.00 0.00
6:53 am 06:53 Sunny with Mist and Fog 72 22.2 69 20.6 91 91 E 3 6 29.96 1014 5 8 0.00 0.00
7:53 am 07:53 Mostly Cloudy with Mist and Fog 74 23.3 70 21.1 88 88 E 3 6 29.97 1015 6 10 0.00 0.00
8:53 am 08:53 Mostly Cloudy 77 25 71 21.7 82 82 Calm 29.99 1016 9 14 0.00 0.00
9:53 am 09:53 Mostly Cloudy 79 26.1 73 22.8 82 82 SE 5 7 30.00 1016 10 16 0.00 0.00
10:53 am 10:53 Cloudy 81 27.2 73 22.8 77 77 S 7 11 30.00 1016 10 16 0.00 0.00
11:53 am 11:53 Mostly Cloudy 84 28.9 74 23.3 72 72 SW 7 11 30.00 1016 10 16 0.00 0.00
12:53 pm 12:53 Mostly Cloudy 87 30.6 75 23.9 67 67 SSW 7 11 29.99 1016 10 16 0.00 0.00
1:53 pm 13:53 Mostly Cloudy 88 31.1 72 22.2 59 59 VRB 3 6 29.98 1015 10 16 0.00 0.00
2:23 pm 14:23 Mostly Cloudy with Heavy Rain 80 26.7 73 22.8 79 79 ESE 16 26 30.00 1016 2 3 0.09 2.29
2:27 pm 14:27 Cloudy with Nearby Thunderstorms 79 26.1 73 22.8 82 82 NE 9 15 30.00 1016 1 2 0.14 3.56
2:32 pm 14:32 Cloudy with Thunderstorms 81 27.2 73 22.8 77 77 VRB 3 6 29.97 1015 1 2 0.15 3.81
2:37 pm 14:37 Cloudy with Thunderstorms 82 27.8 74 23.3 77 77 NNE 3 6 29.97 1015 4 6 0.17 4.32
2:51 pm 14:51 Cloudy with Nearby Thunderstorms 82 28 73 23 74 74 undefined N/A 30.00 1016 10 16 0.17 4.32
2:53 pm 14:53 Cloudy with Nearby Thunderstorms 81 27.2 74 23.3 79 79 undefined N/A 29.99 1016 4 6 0.21 5.33
2:55 pm 14:55 Cloudy with Nearby Thunderstorms 80 26.7 74 23.3 82 82 WSW 18 30 30.00 1016 2 2 0.06 1.52
2:57 pm 14:57 Cloudy with Nearby Thunderstorms 78 25.6 73 22.8 85 85 WSW 13 20 30.00 1016 1 1 0.15 3.81
3:08 pm 15:08 Cloudy with Strong Thunderstorms 78 25.6 74 23.3 87 87 NNE 3 6 29.97 1015 1 1 0.44 11.18
3:14 pm 15:14 Cloudy with Thunderstorms 80 26.7 74 23.3 82 82 Calm 29.97 1015 2 3 0.44 11.18
3:19 pm 15:19 Cloudy with Light Rain 80 26.7 74 23.3 82 82 Calm 29.97 1015 9 14 0.44 11.18
3:53 pm 15:53 Cloudy with Nearby Thunderstorms 80 26.7 74 23.3 82 82 E 5 7 29.97 1015 10 16 0.46 11.68
4:13 pm 16:13 Mostly Cloudy 81 27.2 74 23.3 79 79 Calm 29.97 1015 10 16 0.00 0.03
4:21 pm 16:21 Mostly Cloudy with Nearby Thunderstorms 82 27.8 73 22.8 74 74 SSW 5 7 29.97 1015 10 16 0.00 0.03
4:37 pm 16:37 Mostly Cloudy 80 26.7 74 23.3 82 82 WSW 5 7 29.97 1015 10 16 0.00 0.03
4:53 pm 16:53 Partly Cloudy 81 27.2 74 23.3 79 79 Calm 29.96 1014 10 16 0.00 0.03
5:53 pm 17:53 Mostly Sunny 81 27.2 74 23.3 79 79 E 7 11 29.96 1015 10 16 0.00 0.00
6:53 pm 18:53 Partly Cloudy 82 27.8 74 23.3 77 77 Calm 29.97 1015 10 16 0.00 0.00
7:53 pm 19:53 Cloudy 82 27.8 74 23.3 77 77 Calm 29.98 1015 10 16 0.00 0.00
8:53 pm 20:53 Clear with Light Rain 79 26.1 74 23.3 85 85 Calm 29.99 1016 10 16 0.00 0.03
9:53 pm 21:53 Clear 78 25.6 75 23.9 90 90 E 3 6 30.00 1016 10 16 0.00 0.03
10:53 pm 22:53 Clear 78 25.6 73 22.8 85 85 ESE 3 6 30.01 1016 10 16 0.00 0.00
11:53 pm 23:53 Clear 77 25 73 22.8 88 88 Calm 30.02 1017 10 16 0.00 0.00

Powered by AerisWeather